Regional Weather Roundup
Issued by NWS Goodland, KS

Home | Current Version | Previous Version | Text Only | Print | Product List | Glossary On
Versions: 1 2 3 4 5 6 7 8 9 10 11 12 13 14 15 16 17 18 19 20 21 22 23 24 25 26 27 28 29 30 31 32 33 34 35 36 37 38 39 40 41 42 43 44 45 46 47 48 49 50
000
ASUS43 KGLD 300308
RWRGLD

GOODLAND FORECAST AREA HOURLY WEATHER ROUNDUP
NATIONAL WEATHER SERVICE GOODLAND KS
900 PM MDT SAT APR 29 2017

...OFFICIAL OBSERVATIONS...

CITY           SKY/WX    TMP DP  RH WIND       PRES   REMARKS
GOODLAND KS    LGT SNOW  33  32  96 N22G30    30.03S FOG
HILL CITY KS   RAIN      36  35  96 N17G24    30.02R FOG
IMPERIAL NEB   CLOUDY    41  27  57 N8        30.11R
MCCOOK NEB     CLOUDY    40  32  73 NE18      30.06R
AKRON CO       CLOUDY    37  23  56 N22G30    30.13R
BURLINGTON CO  NOT AVBL
LIMON CO       LGT SNOW  28  28 100 N22G30    30.10S FOG     WCI  14
$$

...UNOFFICIAL OBSERVATIONS...

CITY           SKY/WX    TMP DP  RH WIND       PRES   REMARKS
LENORA KS        N/A     34  32  92 MISG        N/A
NORTON KS      LGT RAIN  36  30  80 N17G29    30.03R
SHARON SPRINGS   N/A     32  31  96 N14G26      N/A
TRENTON NEB      N/A     41  32  70 N15         N/A
KIT CARSON CO    N/A     35  28  76 MISG        N/A
$$



USA.gov is the U.S. government's official web portal to all federal, state and local government web resources and services.